Home > Weather > Maintal > Past weeks

Flag for Germany Weather for the Past 2 Weeks in Maintal, Hesse, Germany

Now
43 °F

Strong thunderstorms. Partly sunny.


Feels Like: 33 °F
Forecast: 40 / 50 °F
Wind: 24 mph from West

Location: Frankfurt-M-Flughafen Airport

Current Time: Feb 8, 2016 at 4:35:10 PM

Latest Report: Feb 8, 2016 at 4:20 PM


Visibility: 2 mi

Pressure: 29.50 "Hg

Humidity: 87%

Dew point: 39 °F

Location of MaintalLocation

Historic Weather in Maintal — Graph

°F

Maintal Temperature Yesterday

Maximum temperature yesterday: 50 °F (at 11:20 AM)
Minimum temperature yesterday: 36 °F (at 1:20 AM)
Average temperature yesterday: 43 °F

High & Low Weather Summary for the Past Weeks

 TemperatureHumidityPressure
High57 °F (Feb 1, 3:50 AM)100% (Jan 24, 7:20 PM)30.48 "Hg (Jan 24, 7:20 PM)
Low28 °F (Jan 29, 4:50 AM)54% (Jan 25, 3:50 PM)29.42 "Hg (Feb 8, 1:20 PM)
Average45 °F80%30.10 "Hg
* Reported Jan 24 3:20 PM — Feb 8 3:20 PM, Maintal, Weather by CustomWeather, © 2016

Note: Actual official high and low records may vary slightly from our data, if they occured in-between our weather recording intervals... More about our weather records

Advertising

Maintal Weather History for the Previous 24 Hours

 ConditionsComfort  
Time TempWeatherWind HumidityBarometerVisibility
3:20 PM
Mon, Feb 8
50 °FSprinkles. Broken clouds.20 mph71%29.45 "HgN/A
2:50 PM50 °FSprinkles. Partly sunny.21 mph71%29.45 "HgN/A
2:20 PM50 °FSprinkles. Partly sunny.20 mph76%29.45 "HgN/A
1:50 PM50 °FSprinkles. Partly sunny.24 mph76%29.45 "HgN/A
1:20 PM48 °FLight rain. Broken clouds.22 mph82%29.42 "HgN/A
12:50 PM48 °FLight rain. Partly sunny.25 mph87%29.45 "HgN/A
12:20 PM48 °FLight rain. Partly sunny.16 mph87%29.45 "HgN/A
11:50 AM48 °FPartly sunny.16 mph82%29.45 "HgN/A
11:20 AM46 °FLight rain. Partly sunny.14 mph87%29.47 "HgN/A
10:50 AM50 °FLight rain. Partly sunny.17 mph71%29.47 "HgN/A
10:20 AM48 °FPartly sunny.17 mph71%29.47 "HgN/A
9:50 AM46 °FPartly sunny.17 mph76%29.47 "HgN/A
9:20 AM46 °FLight rain. Partly sunny.20 mph76%29.50 "HgN/A
8:50 AM46 °FLight rain. Partly sunny.20 mph71%29.50 "HgN/A
8:20 AM46 °FPartly sunny.21 mph66%29.50 "HgN/A
7:50 AM46 °FPartly sunny.21 mph66%29.53 "HgN/A
7:20 AM46 °FPassing clouds.21 mph66%29.53 "HgN/A
6:50 AM45 °FPassing clouds.21 mph71%29.56 "HgN/A
6:20 AM45 °FPassing clouds.21 mph71%29.59 "HgN/A
5:50 AM45 °FPassing clouds.17 mph71%29.59 "HgN/A
5:20 AM45 °FPassing clouds.17 mph71%29.59 "HgN/A
4:20 AM43 °FPassing clouds.16 mph76%29.65 "HgN/A
3:50 AM45 °FPassing clouds.14 mph71%29.65 "HgN/A
2:50 AM43 °FPassing clouds.8 mph81%29.68 "HgN/A
2:20 AM43 °FPassing clouds.13 mph81%29.68 "HgN/A
1:50 AM43 °FPassing clouds.12 mph81%29.71 "HgN/A
1:20 AM43 °FPartly cloudy.14 mph81%29.71 "HgN/A
12:50 AM43 °FPassing clouds.16 mph81%29.74 "HgN/A
12:20 AM43 °FPassing clouds.12 mph81%29.74 "HgN/A
11:20 PM
Sun, Feb 7
43 °FPassing clouds.12 mph81%29.77 "HgN/A
10:50 PM43 °FPassing clouds.13 mph81%29.77 "HgN/A
10:20 PM45 °FPartly cloudy.13 mph81%29.77 "HgN/A
9:50 PM45 °FPassing clouds.12 mph81%29.77 "HgN/A
9:20 PM45 °FPartly cloudy.14 mph81%29.77 "HgN/A
8:50 PM46 °FPassing clouds.13 mph76%29.77 "HgN/A
8:20 PM46 °FPartly cloudy.13 mph76%29.74 "HgN/A
7:50 PM46 °FPartly cloudy.14 mph76%29.74 "HgN/A
7:20 PM46 °FPartly cloudy.15 mph76%29.74 "HgN/A
6:50 PM46 °FPassing clouds.15 mph76%29.74 "HgN/A
6:20 PM46 °FPassing clouds.16 mph71%29.71 "HgN/A
5:50 PM48 °FPartly cloudy.14 mph66%29.71 "HgN/A
5:20 PM48 °FBroken clouds.15 mph66%29.71 "HgN/A
4:20 PM48 °FBroken clouds.10 mph82%29.68 "HgN/A
Weather by CustomWeather, © 2016

See weather overviewHow to use our weather pages